This demonstration page uses our WeatherBlox Daily Observations layout. Learn more.

Left ArrowRight Arrow

39.01783, -85.05884

Hourly Observations for April 2, 2019

Temp ( °F °C ) Dew Point ( °F °C ) Humidity (%) Winds ( mph kmh ) Pressure ( in mb ) Visibility ( mi km ) Precip ( " mm )
12:52 am 00:52 Partly Cloudy 36 2.2 22 -5.6 57 57 ESE 8 13 30.22 1024 10 16 N/A
1:52 am 01:52 Mostly Cloudy 35 1.7 22 -5.6 59 59 ESE 6 9 30.20 1023 10 16 N/A
2:52 am 02:52 Mostly Cloudy 35 1.7 21 -6.1 57 57 ESE 6 9 30.18 1022 10 16 N/A
3:52 am 03:52 Cloudy 34 1.1 21 -6.1 59 59 S 3 6 30.16 1021 10 16 N/A
4:52 am 04:52 Cloudy 36 2.2 19 -7.2 50 50 SE 5 7 30.15 1021 10 16 N/A
5:52 am 05:52 Cloudy 35 1.7 19 -7.2 52 52 SSE 3 6 30.14 1021 10 16 N/A
6:52 am 06:52 Cloudy 35 1.7 21 -6.1 57 57 ESE 5 7 30.14 1021 10 16 N/A
7:52 am 07:52 Cloudy 35 1.7 20 -6.7 54 54 SE 3 6 30.15 1021 10 16 N/A
8:52 am 08:52 Cloudy 37 2.8 21 -6.1 52 52 ESE 5 7 30.14 1021 10 16 N/A
9:52 am 09:52 Cloudy 41 5 21 -6.1 45 45 SE 5 7 30.14 1021 10 16 N/A
10:52 am 10:52 Mostly Cloudy 45 7.2 23 -5 42 42 S 6 9 30.13 1020 10 16 N/A
11:52 am 11:52 Mostly Cloudy 49 9.4 22 -5.6 35 35 W 7 11 30.11 1020 10 16 N/A
12:52 pm 12:52 Partly Cloudy 52 11.1 22 -5.6 31 31 W 10 17 30.11 1020 10 16 N/A
1:52 pm 13:52 Partly Cloudy 54 12.2 23 -5 30 30 SSW 7 11 30.09 1019 10 16 N/A
2:52 pm 14:52 Mostly Sunny 55 12.8 24 -4.4 30 30 VRB 5 7 30.08 1019 10 16 N/A
3:52 pm 15:52 Mostly Sunny 57 13.9 22 -5.6 26 26 VRB 3 6 30.05 1018 10 16 N/A
4:52 pm 16:52 Mostly Sunny 58 14.4 23 -5 26 26 W 8 13 30.04 1017 10 16 N/A
5:52 pm 17:52 Mostly Sunny 58 14.4 24 -4.4 27 27 SW 7 11 30.04 1017 10 16 N/A
6:52 pm 18:52 Mostly Sunny 56 13.3 23 -5 28 28 SW 9 15 30.05 1018 10 16 N/A
7:52 pm 19:52 Mostly Sunny 54 12.2 25 -3.9 33 33 SW 8 13 30.06 1018 10 16 N/A
8:52 pm 20:52 Partly Cloudy 51 10.6 25 -3.9 36 36 SSW 5 7 30.06 1018 10 16 N/A
9:52 pm 21:52 Partly Cloudy 49 9.4 25 -3.9 39 39 SSW 6 9 30.09 1019 10 16 N/A
10:52 pm 22:52 Clear 47 8.3 25 -3.9 42 42 SW 7 11 30.10 1019 10 16 N/A
11:52 pm 23:52 Clear 47 8.3 26 -3.3 44 44 SW 8 13 30.10 1019 10 16 N/A

Powered by AerisWeather